This demonstration page uses our WeatherBlox Daily Observations layout. Learn more.

Left ArrowRight Arrow

Hourly Observations for January 17, 2015

Temp ( °F °C ) Dew Point ( °F °C ) Humidity (%) Winds ( mph kmh ) Pressure ( in mb ) Visibility ( mi km ) Precip ( " mm )
12:15 am 00:15 Clear 30 -1 23 -5 75 75 SSE 7 11 30.18 1022 7 11.26538 N/A
12:35 am 00:35 Clear 32 0 23 -5 69 69 SSE 8 13 30.18 1022 7 11.26538 N/A
12:55 am 00:55 Clear 32 0 23 -5 69 69 S 9 15 30.18 1022 7 11.26538 N/A
1:15 am 01:15 Clear 32 0 23 -5 69 69 S 8 13 30.18 1022 7 11.26538 N/A
1:35 am 01:35 Clear 32 0 23 -5 69 69 S 7 11 30.15 1021 7 11.26538 N/A
1:55 am 01:55 Clear 32 0 23 -5 69 69 S 7 11 30.15 1021 7 11.26538 N/A
2:15 am 02:15 Clear 32 0 23 -5 69 69 S 7 11 30.15 1021 7 11.26538 N/A
2:35 am 02:35 Clear 32 0 23 -5 69 69 SSE 7 11 30.15 1021 7 11.26538 N/A
2:55 am 02:55 Clear 32 0 23 -5 69 69 SSE 8 13 30.15 1021 7 11.26538 N/A
3:15 am 03:15 Clear 32 0 23 -5 69 69 S 8 13 30.15 1021 7 11.26538 N/A
3:35 am 03:35 Clear 32 0 25 -4 75 75 S 9 15 30.12 1020 7 11.26538 N/A
3:55 am 03:55 Clear 32 0 25 -4 75 75 S 9 15 30.12 1020 7 11.26538 N/A
4:16 am 04:16 Clear 32 0 25 -4 75 75 S 8 13 30.12 1020 7 11.26538 N/A
4:35 am 04:35 Clear 32 0 25 -4 75 75 S 8 13 30.12 1020 7 11.26538 N/A
4:55 am 04:55 Clear 30 -1 27 -3 86 86 S 8 13 30.09 1019 7 11.26538 N/A
5:16 am 05:16 Clear 30 -1 27 -3 86 86 S 8 13 30.09 1019 7 11.26538 N/A
5:35 am 05:35 Clear 30 -1 28 -2 93 93 S 10 17 30.09 1019 7 11.26538 N/A
5:55 am 05:55 Clear 30 -1 28 -2 93 93 S 10 17 30.09 1019 7 11.26538 N/A
6:15 am 06:15 Clear 32 0 27 -3 80 80 S 10 17 30.06 1018 7 11.26538 N/A
6:35 am 06:35 Clear 32 0 25 -4 75 75 S 9 15 30.09 1019 7 11.26538 N/A
6:55 am 06:55 Clear 32 0 25 -4 75 75 S 10 17 30.06 1018 7 11.26538 N/A
7:15 am 07:15 Clear 32 0 25 -4 75 75 S 9 15 30.06 1018 7 11.26538 N/A
7:35 am 07:35 Clear 32 0 25 -4 75 75 S 10 17 30.06 1018 7 11.26538 N/A
7:55 am 07:55 Clear 32 0 25 -4 75 75 S 10 17 30.06 1018 7 11.26538 N/A
8:15 am 08:15 Sunny 32 0 25 -4 75 75 S 12 19 30.06 1018 7 11.26538 N/A
8:35 am 08:35 Sunny 32 0 25 -4 75 75 S 13 20 30.06 1018 7 11.26538 N/A
8:55 am 08:55 Sunny 32 0 25 -4 75 75 S 13 20 30.03 1017 7 11.26538 N/A
9:15 am 09:15 Sunny 34 1 25 -4 70 70 S 12 19 30.03 1017 7 11.26538 N/A
9:35 am 09:35 Sunny 34 1 25 -4 70 70 S 14 22 30.03 1017 7 11.26538 N/A
9:55 am 09:55 Sunny 36 2 25 -4 65 65 S 13 20 30.03 1017 7 11.26538 N/A
10:15 am 10:15 Sunny 36 2 25 -4 65 65 S 14 22 30.03 1017 10 16.0934 N/A
10:35 am 10:35 Sunny 37 3 25 -4 60 60 S 12 19 30 1016 10 16.0934 N/A
10:55 am 10:55 Sunny 39 4 25 -4 56 56 S 15 24 30 1016 10 16.0934 N/A
11:16 am 11:16 Sunny 39 4 25 -4 56 56 S 15 24 30 1016 10 16.0934 N/A
11:35 am 11:35 Sunny 41 5 25 -4 53 53 S 12 19 29.97 1015 10 16.0934 N/A
11:55 am 11:55 Sunny 41 5 25 -4 53 53 S 13 20 29.97 1015 10 16.0934 N/A
12:15 pm 12:15 Sunny 41 5 27 -3 57 57 S 12 19 29.94 1014 10 16.0934 N/A
12:35 pm 12:35 Sunny 43 6 27 -3 53 53 S 13 20 29.94 1014 10 16.0934 N/A
12:56 pm 12:56 Sunny 45 7 27 -3 49 49 S 12 19 29.91 1013 10 16.0934 N/A
1:15 pm 13:15 Sunny 48 9 27 -3 43 43 SSW 18 30 29.91 1013 10 16.0934 N/A
1:35 pm 13:35 Sunny 48 9 25 -4 40 40 SSW 21 33 29.88 1012 10 16.0934 N/A
1:55 pm 13:55 Sunny 46 8 25 -4 43 43 SSW 21 33 29.85 1011 10 16.0934 N/A
2:15 pm 14:15 Sunny 48 9 25 -4 40 40 SSW 14 22 29.85 1011 10 16.0934 N/A
2:35 pm 14:35 Sunny 48 9 25 -4 40 40 SSW 15 24 29.85 1011 10 16.0934 N/A
2:55 pm 14:55 Sunny 50 10 25 -4 37 37 S 15 24 29.8 1009 10 16.0934 N/A
3:15 pm 15:15 Sunny 50 10 23 -5 35 35 SSW 16 26 29.8 1009 10 16.0934 N/A
3:36 pm 15:36 Sunny 50 10 25 -4 37 37 S 14 22 29.77 1008 10 16.0934 N/A
3:55 pm 15:55 Sunny 50 10 23 -5 35 35 SSW 16 26 29.77 1008 10 16.0934 N/A
4:15 pm 16:15 Sunny 50 10 23 -5 35 35 SSW 15 24 29.77 1008 10 16.0934 N/A
4:35 pm 16:35 Sunny 50 10 21 -6 32 32 SSW 18 30 29.77 1008 10 16.0934 N/A
4:55 pm 16:55 Sunny 48 9 21 -6 34 34 SSW 17 28 29.8 1009 10 16.0934 N/A
5:16 pm 17:16 Sunny 48 9 21 -6 34 34 SSW 14 22 29.8 1009 10 16.0934 N/A
5:35 pm 17:35 Sunny 46 8 21 -6 37 37 SSW 12 19 29.8 1009 10 16.0934 N/A
5:55 pm 17:55 Clear 45 7 21 -6 39 39 SSW 10 17 29.8 1009 10 16.0934 N/A
6:15 pm 18:15 Clear 45 7 21 -6 39 39 SSW 12 19 29.8 1009 10 16.0934 N/A
6:35 pm 18:35 Clear 45 7 21 -6 39 39 SSW 14 22 29.83 1010 10 16.0934 N/A
6:55 pm 18:55 Clear 45 7 23 -5 42 42 SSW 12 19 29.83 1010 10 16.0934 N/A
7:15 pm 19:15 Clear 43 6 23 -5 46 46 SSW 9 15 29.83 1010 10 16.0934 N/A
7:35 pm 19:35 Clear 43 6 23 -5 46 46 SSW 10 17 29.83 1010 10 16.0934 N/A
7:56 pm 19:56 Partly Cloudy 43 6 23 -5 46 46 SSW 12 19 29.8 1009 10 16.0934 N/A
8:15 pm 20:15 Cloudy 45 7 23 -5 42 42 SSW 12 19 29.8 1009 10 16.0934 N/A
8:35 pm 20:35 Cloudy 45 7 23 -5 42 42 SSW 10 17 29.8 1009 10 16.0934 N/A
8:56 pm 20:56 Cloudy 45 7 23 -5 42 42 SSW 13 20 29.8 1009 10 16.0934 N/A
9:15 pm 21:15 Cloudy 45 7 23 -5 42 42 SSW 14 22 29.8 1009 10 16.0934 N/A
9:35 pm 21:35 Cloudy 45 7 23 -5 42 42 SSW 14 22 29.8 1009 10 16.0934 N/A
9:55 pm 21:55 Cloudy 45 7 23 -5 42 42 SSW 13 20 29.8 1009 10 16.0934 N/A
10:15 pm 22:15 Cloudy 45 7 23 -5 42 42 SW 15 24 29.8 1009 10 16.0934 N/A
10:36 pm 22:36 Cloudy 46 8 23 -5 40 40 WSW 18 30 29.8 1009 10 16.0934 N/A
10:55 pm 22:55 Cloudy 46 8 25 -4 43 43 WSW 23 37 29.8 1009 10 16.0934 N/A
11:15 pm 23:15 Mostly Cloudy 45 7 27 -3 49 49 WSW 20 31 29.8 1009 10 16.0934 N/A
11:35 pm 23:35 Cloudy 43 6 27 -3 53 53 W 18 30 29.83 1010 10 16.0934 N/A
11:55 pm 23:55 Cloudy 43 6 27 -3 53 53 W 12 19 29.83 1010 10 16.0934 N/A

Powered by AerisWeather